Regional Weather Roundup
Issued by NWS

Home | Current Version | Previous Version | Graphics & Text | Print | Product List | Glossary On
Versions: 1 2 3 4 5 6 7 8 9 10 11 12 13 14 15 16 17 18 19 20 21 22 23 24 25 26 27 28 29 30 31 32 33 34 35 36 37 38 39 40 41 42 43 44 45 46 47 48 49 50
000
ASUS43 KTOP 270508
RWRKS

WEATHER ROUNDUP FOR KANSAS
NATIONAL WEATHER SERVICE GOODLAND KS
1200 AM CDT SAT MAY 27 2017

NOTE:  "FAIR" INDICATES FEW OR NO CLOUDS BELOW 12,000 FEET WITH NO
SIGNIFICANT WEATHER AND/OR OBSTRUCTIONS TO VISIBILITY.

KSZ001>006-013>018-027>032-041>047-270600-
NORTHWEST KANSAS

CITY           SKY/WX    TMP DP  RH WIND       PRES   REMARKS
GOODLAND       TSTM      52  49  89 N24G30    29.90F
HAYS           CLOUDY    63  59  87 NE9       29.86S
HILL CITY      CLOUDY    66  57  72 NE8       29.87F
RUSSELL        CLOUDY    64  59  83 NE6       29.85R
$$

KSZ061>065-074>080-084>089-270600-
SOUTHWEST KANSAS

CITY           SKY/WX    TMP DP  RH WIND       PRES   REMARKS
DODGE CITY     CLEAR     67  58  72 SE12      29.83F
ELKHART          N/A     63  47  56 MISG        N/A
GARDEN CITY    CLEAR     66  57  72 SE18      29.80F
GREAT BEND     CLEAR     67  60  78 E7        29.85S
LIBERAL        CLEAR     67  56  67 E13       29.82S
PRATT          CLEAR     66  58  76 E6        29.85F
$$

KSZ066>073-081>083-090>101-270600-
SOUTHEAST KANSAS

CITY           SKY/WX    TMP DP  RH WIND       PRES   REMARKS
CHANUTE        CLEAR     70  64  81 E6        29.83S
COFFEYVILLE    CLEAR     70  70 100 NE5       29.82R
HUTCHINSON     CLEAR     67  61  81 E8        29.84S
MEDICINE LODGE   N/A     72  59  63 E7        29.82F
NEWTON         CLEAR     68  62  81 E3        29.86S
PARSONS        CLEAR     66  64  93 CALM      29.84R
WICHITA INTL   CLEAR     71  63  75 SE6       29.84S
WICHITA JABRA  CLEAR     70  63  78 SE3       29.84F
WICHITA MCCONL CLEAR     73  62  69 SE3       29.84F
WINFIELD       CLEAR     68  61  78 CALM      29.85R
$$

KSZ007>012-019>026-033>040-048>060-102>105-270600-
NORTHEAST KANSAS

CITY           SKY/WX    TMP DP  RH WIND       PRES   REMARKS
CONCORDIA      CLEAR     64  56  75 CALM      29.85R
EMPORIA        CLEAR     67  63  87 SE6       29.84S
LAWRENCE       CLEAR     67  65  93 CALM      29.83S
MANHATTAN      CLEAR     64  61  90 CALM      29.83S
MARYSVILLE     CLEAR     66  52  59 E6        29.85S
OLATHE IND     CLEAR     68  64  87 S3        29.85R
OLATHE EXE     CLEAR     69  67  93 CALM      29.85R
SALINA         CLEAR     65  61  87 S5        29.84S
TOPEKA BILLARD PTCLDY    68  67  96 CALM      29.83R
TOPEKA FORBES  CLEAR     68  64  87 CALM      29.83S
$$



USA.gov is the U.S. government's official web portal to all federal, state and local government web resources and services.